Volver al catálogo

BREEZE-M DEB

LostHEO
NORAD 34256·DEBRIS·🇷🇺 Russia

Lanzado Feb 28, 2006 desde Baikonur Cosmodrome

Loading…

Próximos Pases (próximas 24 horas)

TLE

ObsoletoSource: Space-Track

Época: Dec 25, 2022, 00:52 UTC

1 34256U 06006BX  22359.03675660  .00001873  00000-0  54852-2 0  9991
2 34256  51.8721 214.8253 5062492 205.5318 344.0781  5.19659954273645

Sigue BREEZE-M DEB en tiempo real con AllMySat

Download on the App Store